Location: Iesi
(43.5167°N, 13.2333°E)
Time: 16:12:30
(UTC+00:00)

Cosmos 1812 - Pass Details

Date: 08 August 2020
Orbit: 517 x 521 km, 82.5° (Epoch: 22 September)

Event Time Altitude Azimuth Distance (km) Brightness Sun altitude
Rises 19:16:47 0° 356° (N) 2,650 6.9 -9.9°
Reaches altitude 10° 19:18:59 10° 2° (N) 1,757 5.8 -10.2°
Maximum altitude 19:22:44 49° 79° (ENE) 673 3.0 -10.8°
Enters shadow 19:25:54 14° 153° (SSE) 1,527 4.5 -11.3°
